[[{"header":{"parameterUnit":"m.s-1","parameterCategory":1,"la1":30.2992,"la2":30.254,"lo1":-89.0895,"lo2":-89.0443,"dy":0.0025,"dx":0.0025,"nx":19,"ny":19,"refTime":"2026-04-24T09:00:00:Z","depth":0,"parameterNumber":2,"parameterNumberName":"U-component_of_WINDS"},"data":[0,0,0,0.3336,0.3337,0.3371,0.3371,0.3419,0.3419,0,0,0,0,0,0,0,0,0,0,0,0.3329,0.3329,0.3336,0.3337,0.3371,0.3371,0.3419,0.3419,0,0,0,0,0,0,0,0,0,0,0,0.3328,0.3329,0.3329,0.3337,0.3371,0.3371,0.3418,0.3391,0,0,0,0,0,0,0,0,0,0,0.3357,0.3354,0.3329,0.3329,0.3337,0.3371,0.3371,0.339,0.3393,0.3405,0,0.3417,0,0.3419,0.3423,0.3423,0,0,0,0.3335,0.3351,0.3358,0.333,0.3337,0.3371,0.3355,0.3392,0.3395,0.3409,0.3417,0.3419,0.3419,0.3423,0.3423,0.3499,0.35,0,0,0.3333,0.3336,0.3355,0.336,0.3355,0.3354,0.3356,0.3394,0.3403,0.3418,0.342,0.342,0.3423,0.3424,0.3499,0.35,0,0,0,0.3329,0.3335,0.3341,0.3358,0.3364,0.3355,0.3357,0.3401,0.3403,0.3421,0.3421,0.3424,0.3424,0.3499,0.3499,0.3525,0,0,0,0.3328,0.3333,0.334,0.3343,0.3363,0.3383,0.3364,0.34,0.3404,0.3421,0.3424,0.3425,0.3498,0.3499,0.3523,0.3537,0,0,0,0.3325,0.3333,0.3338,0.3343,0.3357,0.3382,0.3386,0.3401,0.3404,0.3423,0.3425,0.3498,0.3499,0.3522,0.3534,0.3558,0,0,0,0.3324,0.3362,0.3339,0.338,0.3357,0.3398,0.3386,0.3416,0.3435,0.3424,0.3498,0.3499,0.3521,0.3533,0.3556,0.3578,0.3588,0,0,0.3373,0.3368,0.3391,0.3372,0.3418,0.3392,0.3441,0.3456,0.3454,0.3484,0.3486,0.3524,0.3534,0.3557,0.3639,0.3647,0,0,0,0.3408,0.3425,0.3437,0.3454,0.3465,0.3476,0.3482,0.3487,0.3512,0.347,0.3538,0.3544,0.3558,0.3568,0.3575,0.3586,0.3504,0.3504,0.3504,0.3483,0.3479,0.3517,0.3517,0.3534,0.3539,0.3552,0.3559,0.3551,0.3566,0.3576,0.3626,0.3638,0.3643,0.3655,0.3587,0.3587,0.3587,0.3587,0.3555,0.3578,0.3564,0.3596,0.3591,0.3618,0.3624,0.3616,0.364,0.3619,0.3631,0.3608,0.3652,0.3662,0.3589,0.3588,0.3588,0.3588,0.3588,0.3604,0.3614,0.3619,0.3643,0.3662,0.3659,0.3683,0.3677,0.3672,0.3683,0.3692,0.3691,0.369,0.3687,0.3688,0.3688,0.3688,0.3688,0.3688,0.3653,0.3657,0.3678,0.3692,0.3701,0.3713,0.3717,0.3727,0.3736,0.373,0.373,0.3719,0.3657,0.3641,0.3691,0.369,0.369,0.369,0.369,0.3728,0.371,0.3742,0.3752,0.3766,0.3785,0.3776,0.3796,0.3803,0.3814,0.38,0.3755,0.3749,0.3744,0.3731,0.3801,0.3801,0.3801,0.3801,0.377,0.3766,0.3796,0.3812,0.3827,0.3822,0.3857,0.386,0.386,0.3864,0.3853,0.3835,0.383,0.3827,0.382,0.3808,0.3896,0.3896,0.3896,0.3816,0.3812,0.3844,0.3843,0.3854,0.3863,0.3896,0.3914,0.391,0.39,0.3867,0.3863,0.3834,0.3825,0.3815,0.3805,0.3783,0,0]},{"header":{"parameterUnit":"m.s-1","parameterCategory":1,"la1":30.2992,"la2":30.254,"lo1":-89.0895,"lo2":-89.0443,"dy":0.0025,"dx":0.0025,"nx":19,"ny":19,"refTime":"2026-04-24T09:00:00:Z","depth":0,"parameterNumber":3,"parameterNumberName":"V-component_of_WINDS"},"data":[0,0,0,1.6796,1.6797,1.6873,1.6873,1.696,1.6961,0,0,0,0,0,0,0,0,0,0,0,1.6768,1.6769,1.6796,1.6797,1.6873,1.6873,1.696,1.6961,0,0,0,0,0,0,0,0,0,0,0,1.6768,1.6768,1.6769,1.6798,1.6873,1.6873,1.696,1.6906,0,0,0,0,0,0,0,0,0,0,1.6835,1.6804,1.6768,1.6769,1.6798,1.6872,1.6873,1.6904,1.691,1.6922,0,1.6932,0,1.6948,1.6966,1.6966,0,0,0,1.6802,1.6799,1.6824,1.6769,1.6799,1.6872,1.684,1.6907,1.6914,1.693,1.6933,1.6937,1.6949,1.6966,1.6967,1.7026,1.7026,0,0,1.6797,1.6779,1.682,1.6828,1.6816,1.6837,1.6842,1.6911,1.6914,1.6933,1.6939,1.695,1.6967,1.6968,1.7026,1.7026,0,0,0,1.6783,1.6776,1.6799,1.6824,1.6839,1.6839,1.6845,1.6911,1.692,1.694,1.6951,1.6967,1.6968,1.7026,1.7026,1.7013,0,0,0,1.678,1.6767,1.6797,1.6787,1.6837,1.6876,1.6843,1.6915,1.6924,1.6951,1.6967,1.6969,1.7026,1.7026,1.7013,1.701,0,0,0,1.6765,1.6765,1.6774,1.6785,1.6817,1.6875,1.6888,1.6917,1.6931,1.6966,1.6969,1.7026,1.7026,1.7013,1.701,1.702,0,0,0,1.6743,1.6761,1.6774,1.6798,1.6816,1.6866,1.6888,1.6926,1.6955,1.6968,1.7026,1.7026,1.7013,1.701,1.702,1.7026,1.7027,0,0,1.6755,1.6762,1.6778,1.6791,1.6834,1.6856,1.6897,1.6941,1.6961,1.7003,1.7005,1.7013,1.701,1.702,1.7035,1.7035,0,0,0,1.6775,1.6787,1.6802,1.6829,1.6863,1.6892,1.6932,1.6949,1.6985,1.6979,1.702,1.7019,1.7025,1.7029,1.7029,1.7037,1.7027,1.7027,1.7027,1.6766,1.6791,1.6819,1.6854,1.6879,1.692,1.6944,1.6973,1.6991,1.7,1.7013,1.7018,1.7022,1.7022,1.7029,1.7017,1.7017,1.7017,1.7017,1.6786,1.6806,1.683,1.6865,1.6892,1.6922,1.6962,1.6974,1.7006,1.701,1.7018,1.7021,1.7021,1.7029,1.7016,1.7016,1.7016,1.7017,1.7017,1.6783,1.6797,1.6817,1.6859,1.6888,1.6922,1.6952,1.6975,1.6997,1.7004,1.7021,1.7021,1.7025,1.701,1.701,1.701,1.701,1.701,1.701,1.6772,1.6795,1.6818,1.6856,1.6876,1.6906,1.6948,1.6969,1.6998,1.7012,1.7012,1.7029,1.7016,1.7013,1.7011,1.7011,1.7011,1.7011,1.7011,1.6785,1.6786,1.682,1.6841,1.6888,1.6916,1.6945,1.6985,1.7006,1.702,1.7035,1.7022,1.703,1.703,1.7028,1.703,1.703,1.703,1.703,1.6782,1.6789,1.683,1.6861,1.6895,1.6925,1.6964,1.6996,1.703,1.7044,1.7047,1.7045,1.7044,1.7053,1.7053,1.7051,1.7058,1.7059,1.7059,1.6792,1.6802,1.6831,1.6864,1.6903,1.6935,1.6973,1.7008,1.7046,1.706,1.7056,1.7055,1.7052,1.705,1.7064,1.7063,1.706,0,0]}]]